Weather History for Wildwood, NJ

Change the Weather History Date:

Thursday, November 8, 2012

  Actual Average Record
Temperature  
Mean Temperature 42 °F -  
Max Temperature 48 °F 55 °F 66 °F (1996)
Min Temperature 35 °F 41 °F 30 °F (1999)
Degree Days  
Heating Degree Days 24    
Moisture  
Dew Point 26 °F    
Average Humidity 52    
Maximum Humidity 87    
Minimum Humidity 34    
Precipitation  
Precipitation 0.02 in - - ()
Sea Level Pressure  
Sea Level Pressure 29.83 in    
Wind  
Wind Speed 11 mph (NW)    
Max Wind Speed 16 mph    
Max Gust Speed 24 mph    
Visibility 10 miles    
Events      
Averages and records for this station are not official NWS values.
T = Trace of Precipitation, MM = Missing Value Source: NWS Daily Summary

Daily Weather History Graph

Daily Weather History Graph

Search for Another Location

Airport:

Trip Planner

Search our weather history database for the weather conditions in past years. The results will help you decide how hot, cold, wet, or windy it might be!

Date:

Astronomy

Nov. 08, 2012 Rise Set
Actual Time 6:35 AM EST 4:51 PM EST
Civil Twilight 6:07 AM EST 5:19 PM EST
Nautical Twilight 5:35 AM EST 5:51 PM EST
Astronomical Twilight 5:03 AM EST 6:22 PM EST
Moon 12:30 AM EST (11/8) 1:28 PM EST (11/8)
Length of Visible Light 11h 12m
Length of Day
10h 15m
Waning Crescent, 33% of the Moon is Illuminated
Nov 8
Waning Crescent
Nov 13
New
Nov 20
First Quarter
Nov 28
Full
Dec 6
Last Quarter

Hourly Weather History & Observations

Time (EST) Temp. Windchill Dew Point Humidity Pressure Visibility Wind Dir Wind Speed Gust Speed Precip Events Conditions
12:15 AM 35.6 °F 26.6 °F 30.2 °F 81% 29.79 in 10.0 mi North 13.8 mph 20.7 mph N/A   Overcast
12:35 AM 35.6 °F 27.5 °F 30.2 °F 81% 29.79 in 10.0 mi North 11.5 mph 18.4 mph N/A   Overcast
12:55 AM 35.6 °F 27.5 °F 30.2 °F 81% 29.79 in 10.0 mi North 11.5 mph 20.7 mph N/A   Overcast
1:15 AM 35.6 °F 26.6 °F 30.2 °F 81% 29.79 in 10.0 mi North 13.8 mph 20.7 mph N/A   Overcast
1:35 AM 35.6 °F 28.6 °F 30.2 °F 81% 29.79 in 10.0 mi NNW 9.2 mph 16.1 mph 0.01 in   Overcast
2:15 AM 35.6 °F 28.6 °F 30.2 °F 81% 29.79 in 10.0 mi NNW 9.2 mph - N/A   Overcast
2:35 AM 35.6 °F 29.2 °F 32.0 °F 87% 29.80 in 10.0 mi NNW 8.1 mph - N/A   Overcast
2:55 AM 35.6 °F 29.2 °F 30.2 °F 81% 29.79 in 10.0 mi NNW 8.1 mph 17.3 mph N/A   Overcast
3:15 AM 35.6 °F 27.5 °F 30.2 °F 81% 29.79 in 10.0 mi NNW 11.5 mph 17.3 mph N/A   Overcast
3:35 AM 35.6 °F 28.6 °F 30.2 °F 81% 29.79 in 10.0 mi North 9.2 mph 19.6 mph 0.01 in   Overcast
3:55 AM 35.6 °F 28.6 °F 30.2 °F 81% 29.80 in 10.0 mi North 9.2 mph - 0.01 in   Overcast
4:15 AM 37.4 °F 32.1 °F 30.2 °F 75% 29.80 in 10.0 mi NNW 6.9 mph - N/A   Overcast
4:35 AM 37.4 °F 33.8 °F 30.2 °F 75% 29.79 in 10.0 mi NNW 4.6 mph - N/A   Overcast
4:55 AM 37.4 °F 33.8 °F 30.2 °F 75% 29.80 in 10.0 mi NNW 4.6 mph - N/A   Overcast
5:15 AM 39.2 °F 34.2 °F 30.2 °F 70% 29.80 in 10.0 mi NNW 6.9 mph - N/A   Overcast
5:35 AM 39.2 °F 34.2 °F 28.4 °F 65% 29.80 in 10.0 mi NW 6.9 mph - N/A   Overcast
5:55 AM 41.0 °F 34.7 °F 28.4 °F 61% 29.80 in 10.0 mi NW 10.4 mph 16.1 mph N/A   Overcast
6:15 AM 41.0 °F 34.7 °F 26.6 °F 57% 29.80 in 10.0 mi NW 10.4 mph 16.1 mph N/A   Overcast
6:35 AM 41.0 °F 35.8 °F 26.6 °F 57% 29.81 in 10.0 mi NW 8.1 mph - N/A   Overcast
6:55 AM 41.0 °F 35.2 °F 26.6 °F 57% 29.81 in 10.0 mi NW 9.2 mph - N/A   Overcast
7:15 AM 41.0 °F 35.8 °F 24.8 °F 53% 29.82 in 10.0 mi NW 8.1 mph - N/A   Overcast
7:55 AM 42.8 °F 37.5 °F 24.8 °F 49% 29.83 in 10.0 mi NW 9.2 mph 16.1 mph N/A   Overcast
8:15 AM 42.8 °F 37.5 °F 24.8 °F 49% 29.83 in 10.0 mi NW 9.2 mph 17.3 mph N/A   Overcast
8:35 AM 42.8 °F 36.6 °F 24.8 °F 49% 29.83 in 10.0 mi WNW 11.5 mph 18.4 mph N/A   Scattered Clouds
8:55 AM 42.8 °F 37.5 °F 24.8 °F 49% 29.83 in 10.0 mi NW 9.2 mph 18.4 mph N/A   Partly Cloudy
9:15 AM 42.8 °F 37.0 °F 24.8 °F 49% 29.83 in 10.0 mi WNW 10.4 mph - N/A   Clear
9:35 AM 44.6 °F 40.2 °F 24.8 °F 46% 29.83 in 10.0 mi NW 8.1 mph 18.4 mph N/A   Clear
9:55 AM 42.8 °F 37.0 °F 24.8 °F 49% 29.83 in 10.0 mi NW 10.4 mph - N/A   Clear
10:15 AM 44.6 °F 38.8 °F 24.8 °F 46% 29.83 in 10.0 mi NW 11.5 mph 21.9 mph N/A   Clear
10:35 AM 46.4 °F 41.1 °F 24.8 °F 43% 29.83 in 10.0 mi NW 11.5 mph 21.9 mph N/A   Clear
10:55 AM 46.4 °F 41.9 °F 24.8 °F 43% 29.82 in 10.0 mi NW 9.2 mph 18.4 mph N/A   Clear
11:15 AM 46.4 °F 42.9 °F 26.6 °F 46% 29.81 in 10.0 mi NW 6.9 mph 17.3 mph N/A   Clear
11:35 AM 46.4 °F 41.5 °F 23.0 °F 40% 29.80 in 10.0 mi NW 10.4 mph 19.6 mph N/A   Clear
11:55 AM 46.4 °F 42.4 °F 24.8 °F 43% 29.80 in 10.0 mi NW 8.1 mph - N/A   Clear
12:15 PM 48.2 °F - 24.8 °F 40% 29.79 in 10.0 mi NW 12.7 mph 18.4 mph N/A   Clear
12:35 PM 48.2 °F - 28.4 °F 46% 29.79 in 10.0 mi NW 11.5 mph 20.7 mph N/A   Scattered Clouds
12:55 PM 48.2 °F - 26.6 °F 43% 29.78 in 10.0 mi WNW 12.7 mph 21.9 mph N/A   Partly Cloudy
1:15 PM 48.2 °F - 28.4 °F 46% 29.78 in 10.0 mi WNW 16.1 mph 23.0 mph N/A   Clear
1:35 PM 48.2 °F - 26.6 °F 43% 29.79 in 10.0 mi WNW 12.7 mph 24.2 mph N/A   Clear
1:55 PM 48.2 °F - 26.6 °F 43% 29.78 in 10.0 mi NW 12.7 mph 20.7 mph N/A   Clear
2:15 PM 48.2 °F - 26.6 °F 43% 29.78 in 10.0 mi WNW 13.8 mph 20.7 mph N/A   Clear
2:35 PM 48.2 °F - 24.8 °F 40% 29.79 in 10.0 mi NW 9.2 mph 20.7 mph N/A   Clear
2:55 PM 48.2 °F - 21.2 °F 34% 29.79 in 10.0 mi NW 11.5 mph 23.0 mph N/A   Clear
3:15 PM 48.2 °F - 24.8 °F 40% 29.79 in 10.0 mi NW 15.0 mph 21.9 mph N/A   Clear
3:35 PM 48.2 °F - 24.8 °F 40% 29.79 in 10.0 mi NW 16.1 mph 24.2 mph N/A   Clear
3:55 PM 48.2 °F - 26.6 °F 43% 29.80 in 10.0 mi WNW 10.4 mph 21.9 mph N/A   Clear
4:15 PM 48.2 °F - 24.8 °F 40% 29.81 in 10.0 mi WNW 9.2 mph 19.6 mph N/A   Clear
4:35 PM 48.2 °F - 26.6 °F 43% 29.81 in 10.0 mi WNW 12.7 mph 20.7 mph N/A   Clear
4:55 PM 48.2 °F - 26.6 °F 43% 29.82 in 10.0 mi NW 10.4 mph 20.7 mph N/A   Clear
5:15 PM 48.2 °F - 26.6 °F 43% 29.83 in 10.0 mi WNW 8.1 mph 19.6 mph N/A   Clear
5:35 PM 48.2 °F - 28.4 °F 46% 29.84 in 10.0 mi WNW 10.4 mph 19.6 mph N/A   Clear
5:55 PM 48.2 °F - 28.4 °F 46% 29.85 in 10.0 mi NW 12.7 mph 20.7 mph N/A   Clear
6:15 PM 48.2 °F - 26.6 °F 43% 29.86 in 10.0 mi WNW 11.5 mph 21.9 mph N/A   Clear
6:35 PM 48.2 °F - 28.4 °F 46% 29.86 in 10.0 mi NW 16.1 mph 23.0 mph N/A   Clear
6:55 PM 48.2 °F - 24.8 °F 40% 29.87 in 10.0 mi NW 15.0 mph 24.2 mph N/A   Clear
7:15 PM 46.4 °F 41.1 °F 24.8 °F 43% 29.87 in 10.0 mi NW 11.5 mph 24.2 mph N/A   Clear
7:35 PM 46.4 °F 40.4 °F 24.8 °F 43% 29.88 in 10.0 mi NW 13.8 mph 21.9 mph N/A   Clear
7:55 PM 46.4 °F 41.1 °F 24.8 °F 43% 29.89 in 10.0 mi NW 11.5 mph 23.0 mph N/A   Clear
8:15 PM 46.4 °F 40.4 °F 24.8 °F 43% 29.89 in 10.0 mi NW 13.8 mph 23.0 mph N/A   Clear
8:35 PM 46.4 °F 40.7 °F 24.8 °F 43% 29.90 in 10.0 mi NW 12.7 mph 18.4 mph N/A   Clear
8:55 PM 44.6 °F 39.7 °F 24.8 °F 46% 29.91 in 10.0 mi NW 9.2 mph 17.3 mph N/A   Clear
9:15 PM 44.6 °F 40.2 °F 24.8 °F 46% 29.92 in 10.0 mi WNW 8.1 mph - N/A   Clear
9:35 PM 44.6 °F 39.2 °F 23.0 °F 43% 29.92 in 10.0 mi NW 10.4 mph - N/A   Clear
9:55 PM 44.6 °F 39.7 °F 21.2 °F 39% 29.92 in 10.0 mi NW 9.2 mph - N/A   Clear
10:15 PM 42.8 °F 37.5 °F 21.2 °F 42% 29.93 in 10.0 mi NNW 9.2 mph - N/A   Clear
10:35 PM 42.8 °F 37.0 °F 21.2 °F 42% 29.93 in 10.0 mi NW 10.4 mph - N/A   Clear
10:55 PM 42.8 °F 36.6 °F 19.4 °F 39% 29.94 in 10.0 mi NNW 11.5 mph 17.3 mph N/A   Clear
11:15 PM 42.8 °F 37.5 °F 19.4 °F 39% 29.94 in 10.0 mi NW 9.2 mph 16.1 mph N/A   Clear
11:35 PM 42.8 °F 36.6 °F 19.4 °F 39% 29.95 in 10.0 mi NW 11.5 mph 20.7 mph N/A   Clear
11:55 PM 42.8 °F 38.0 °F 19.4 °F 39% 29.96 in 10.0 mi NNW 8.1 mph 19.6 mph N/A   Clear